Preview of NWS' New Version of Forecast
This preview is not operational and should not be used for support decisions.

Regional Weather Roundup (RWR)

Issued by Nashville, TN (OHX)

                            
505 
ASUS44 KOHX 212310
RWROHX
MIDDLE TENNESSEE HOURLY WEATHER ROUNDUP
NATIONAL WEATHER SERVICE NASHVILLE TN
600 PM CDT THU JUN 21 2018

NOTE: "FAIR" INDICATES FEW OR NO CLOUDS BELOW 12,000 FEET WITH
NO SIGNIFICANT WEATHER AND/OR OBSTRUCTIONS TO VISIBILITY.

* THESE REPORTS ARE NOT UNDER NWS QUALITY CONTROL AND MAY NOT
  REPORT WEATHER SUCH AS PRECIPITATION AND FOG.


TNZ005>011-023>034-057-059-062>066-078-080-220000
...NORTHERN MIDDLE TENNESSEE...
  
CITY           SKY/WX    TMP DP  RH WIND       PRES   REMARKS
CLARKSVILLE      N/A     83  67  58 SW8       29.73F                  
CROSSVILLE     CLOUDY    76  68  76 VRB5      29.83F                  
DICKSON        MOSUNNY   81  70  69 VRB7G17   29.76F                  
LEBANON        MOSUNNY   84  70  61 W8        29.73F                  
LIVINGSTON     MOSUNNY   77  70  78 SW10      29.78S                  
PORTLAND       MOSUNNY   84  72  65 SW8       29.74F                  
ROCKWOOD       PTSUNNY   75  72  88 VRB7      29.82S                  
SMYRNA           N/A     84  69  60 SW15      29.76F                  
SPARTA         MOSUNNY   82  72  69 VRB5G12   29.77F                  
SPRINGFIELD    MOSUNNY   81  70  69 SW10      29.74S                  
WEST NASHVILLE SUNNY     84  70  61 SW13      29.73F                  
$$
TNZ056-058-060-061-075>077-079-093>097-220000
...SOUTHERN MIDDLE TENNESSEE...
  
CITY           SKY/WX    TMP DP  RH WIND       PRES   REMARKS
COLUMBIA       SUNNY     84  70  61 SW10      29.75F                  
FAYETTEVILLE   MOSUNNY   82  72  69 SW10      29.80R                  
LEWISBURG      MOSUNNY   84  72  65 SW8       29.77S                  
MCMINNVILLE    PTSUNNY   82  70  65 SW7G15    29.78S                  
MURFREESBORO   MOSUNNY   84  70  61 SW12      29.74F                  
PULASKI        MOSUNNY   86  72  62 W9        29.78S HX  92           
SHELBYVILLE    MOSUNNY   84  70  61 SW13      29.78S                  
TULLAHOMA      MOSUNNY   82  72  69 SW9       29.79S                  
WINCHESTER     SUNNY     82  72  69 SW10G17   29.79F                  
$$


...KEY TO REMARKS...
VSB - VISIBILITY IN MILES
WCI - WIND CHILL INDEX
HX  - HEAT INDEX